Previsão horária em Pligovki

Hoje, 26 Fevereiro, Sexta-feira

Tempo Temperatura Precipitação Vento Pressão Humidade
00:00 +2°C° 0 mm 5 m/s 751 mmHg 95%
01:00 +2°C° 0 mm 5 m/s 751 mmHg 96%
02:00 +3°C° 0 mm 6 m/s 750 mmHg 98%
03:00 +3°C° 0 mm 6 m/s 749 mmHg 97%
04:00 +4°C° 0 mm 6 m/s 748 mmHg 95%
05:00 +4°C° 0 mm 6 m/s 748 mmHg 93%
06:00 +4°C° 0 mm 6 m/s 748 mmHg 93%
07:00 +3°C° 0 mm 6 m/s 747 mmHg 92%
08:00 +3°C° 0 mm 6 m/s 747 mmHg 91%
09:00 +3°C° 0 mm 6 m/s 747 mmHg 87%
10:00 +3°C° 0 mm 6 m/s 747 mmHg 83%
11:00 +3°C° 0 mm 7 m/s 747 mmHg 80%
12:00 +3°C° 0 mm 7 m/s 747 mmHg 80%
13:00 +3°C° 0 mm 7 m/s 748 mmHg 79%
14:00 +3°C° 0 mm 6 m/s 747 mmHg 79%
15:00 +3°C° 0 mm 6 m/s 747 mmHg 81%
16:00 +2°C° 0 mm 5 m/s 747 mmHg 84%
17:00 +1°C° 0 mm 5 m/s 747 mmHg 86%
18:00 +1°C° 0 mm 5 m/s 747 mmHg 86%
19:00 +1°C° 0 mm 5 m/s 747 mmHg 86%
20:00 +1°C° 0 mm 5 m/s 747 mmHg 87%
21:00 +1°C° 0 mm 5 m/s 747 mmHg 88%
22:00 +1°C° 0 mm 4 m/s 747 mmHg 90%
23:00 +1°C° 0 mm 4 m/s 746 mmHg 92%

Amanhã, 27 Fevereiro, Sábado

Tempo Temperatura Precipitação Vento Pressão Humidade
00:00 +1°C° 0 mm 4 m/s 746 mmHg 92%
01:00 0°C° 0 mm 4 m/s 747 mmHg 92%
02:00 0°C° 0 mm 4 m/s 747 mmHg 91%
03:00 0°C° 0 mm 4 m/s 747 mmHg 91%
04:00 0°C° 0 mm 4 m/s 747 mmHg 91%
05:00 0°C° 0 mm 4 m/s 746 mmHg 90%
06:00 0°C° 0 mm 4 m/s 747 mmHg 92%
07:00 0°C° 0 mm 4 m/s 747 mmHg 94%
08:00 0°C° 0 mm 3 m/s 748 mmHg 96%
09:00 0°C° 0.1 mm 3 m/s 748 mmHg 96%
10:00 +1°C° 0.1 mm 3 m/s 749 mmHg 96%
11:00 +1°C° 0.1 mm 3 m/s 749 mmHg 96%
12:00 0°C° 0.1 mm 4 m/s 750 mmHg 94%
13:00 0°C° 0.1 mm 4 m/s 750 mmHg 92%
14:00 0°C° 0.1 mm 5 m/s 751 mmHg 90%
15:00 -1°C° 0 mm 5 m/s 751 mmHg 91%
16:00 -1°C° 0 mm 4 m/s 752 mmHg 93%
17:00 -1°C° 0 mm 4 m/s 752 mmHg 94%
18:00 -1°C° 0 mm 4 m/s 753 mmHg 94%
19:00 -2°C° 0 mm 4 m/s 753 mmHg 94%
20:00 -2°C° 0 mm 4 m/s 754 mmHg 94%
21:00 -2°C° 0 mm 4 m/s 754 mmHg 94%
22:00 -2°C° 0 mm 4 m/s 754 mmHg 93%
23:00 -2°C° 0 mm 4 m/s 755 mmHg 93%

Depois de amanhã, 28 Fevereiro, Domingo

Tempo Temperatura Precipitação Vento Pressão Humidade
00:00 -2°C° 0 mm 4 m/s 755 mmHg 92%
01:00 -2°C° 0 mm 4 m/s 755 mmHg 90%
02:00 -2°C° 0 mm 4 m/s 756 mmHg 89%
03:00 -1°C° 0 mm 3 m/s 755 mmHg 90%
04:00 -2°C° 0 mm 3 m/s 755 mmHg 90%
05:00 -2°C° 0 mm 3 m/s 755 mmHg 91%
06:00 -2°C° 0 mm 3 m/s 755 mmHg 89%
07:00 -3°C° 0 mm 4 m/s 755 mmHg 88%
08:00 -3°C° 0 mm 4 m/s 755 mmHg 86%
09:00 -2°C° 0.2 mm 4 m/s 754 mmHg 88%
10:00 -2°C° 0.2 mm 4 m/s 754 mmHg 91%
11:00 -1°C° 0.2 mm 4 m/s 754 mmHg 93%
12:00 -1°C° 0.5 mm 4 m/s 753 mmHg 93%
13:00 0°C° 0.5 mm 4 m/s 753 mmHg 93%
14:00 0°C° 0.5 mm 4 m/s 753 mmHg 92%
15:00 0°C° 0.1 mm 4 m/s 753 mmHg 94%
16:00 0°C° 0.1 mm 4 m/s 753 mmHg 95%
17:00 0°C° 0.1 mm 4 m/s 753 mmHg 96%
18:00 0°C° 0.1 mm 4 m/s 753 mmHg 96%
19:00 +1°C° 0.1 mm 3 m/s 754 mmHg 96%
20:00 +1°C° 0.1 mm 3 m/s 754 mmHg 96%
21:00 +1°C° 0 mm 3 m/s 755 mmHg 96%
22:00 +1°C° 0 mm 3 m/s 755 mmHg 96%
23:00 +1°C° 0 mm 3 m/s 756 mmHg 96%

1 Março, Segunda-feira

Tempo Temperatura Precipitação Vento Pressão Humidade
00:00 +2°C° 0 mm 2 m/s 756 mmHg 96%
01:00 +1°C° 0 mm 2 m/s 757 mmHg 96%
02:00 +1°C° 0 mm 2 m/s 758 mmHg 95%
03:00 +1°C° 0 mm 2 m/s 757 mmHg 96%
04:00 -1°C° 0 mm 2 m/s 757 mmHg 96%
05:00 -1°C° 0 mm 2 m/s 757 mmHg 96%
06:00 -1°C° 0 mm 3 m/s 757 mmHg 96%
07:00 -1°C° 0 mm 3 m/s 758 mmHg 96%
08:00 -1°C° 0 mm 3 m/s 758 mmHg 95%
09:00 -1°C° 0 mm 4 m/s 758 mmHg 94%
10:00 0°C° 0 mm 4 m/s 758 mmHg 93%
11:00 0°C° 0 mm 4 m/s 758 mmHg 92%
12:00 +1°C° 0 mm 4 m/s 758 mmHg 91%
13:00 +1°C° 0 mm 4 m/s 758 mmHg 90%
14:00 +1°C° 0 mm 4 m/s 758 mmHg 89%
15:00 +1°C° 0 mm 4 m/s 757 mmHg 89%
16:00 +2°C° 0 mm 3 m/s 757 mmHg 90%
17:00 +2°C° 0 mm 3 m/s 757 mmHg 91%
18:00 +2°C° 0 mm 3 m/s 756 mmHg 90%
19:00 +1°C° 0 mm 4 m/s 756 mmHg 90%
20:00 +1°C° 0 mm 4 m/s 756 mmHg 89%
21:00 +1°C° 0 mm 4 m/s 755 mmHg 89%
22:00 +1°C° 0 mm 5 m/s 755 mmHg 88%
23:00 +1°C° 0 mm 5 m/s 755 mmHg 87%

2 Março, Terça-feira

Tempo Temperatura Precipitação Vento Pressão Humidade
00:00 +1°C° 0 mm 5 m/s 755 mmHg 88%
01:00 0°C° 0 mm 4 m/s 755 mmHg 88%
02:00 0°C° 0 mm 4 m/s 755 mmHg 89%
03:00 -1°C° 0 mm 4 m/s 755 mmHg 90%
04:00 -1°C° 0 mm 4 m/s 754 mmHg 90%
05:00 -1°C° 0 mm 4 m/s 754 mmHg 91%
06:00 -1°C° 0 mm 4 m/s 754 mmHg 90%
07:00 -1°C° 0 mm 4 m/s 754 mmHg 90%
08:00 -1°C° 0 mm 5 m/s 754 mmHg 89%
09:00 0°C° 0 mm 5 m/s 754 mmHg 85%
10:00 +1°C° 0 mm 5 m/s 754 mmHg 81%
11:00 +2°C° 0 mm 6 m/s 755 mmHg 77%
12:00 +3°C° 0 mm 6 m/s 754 mmHg 75%
13:00 +4°C° 0 mm 6 m/s 754 mmHg 72%
14:00 +5°C° 0 mm 6 m/s 754 mmHg 69%
15:00 +5°C° 0 mm 5 m/s 754 mmHg 72%
16:00 +5°C° 0 mm 5 m/s 754 mmHg 75%
17:00 +4°C° 0 mm 4 m/s 754 mmHg 78%
18:00 +3°C° 0 mm 4 m/s 755 mmHg 81%
19:00 +1°C° 0 mm 4 m/s 755 mmHg 84%
20:00 +1°C° 0 mm 3 m/s 755 mmHg 87%
21:00 +1°C° 0 mm 3 m/s 756 mmHg 88%
22:00 0°C° 0 mm 3 m/s 756 mmHg 89%
23:00 0°C° 0 mm 3 m/s 756 mmHg 90%

3 Março, Quarta-feira

Tempo Temperatura Precipitação Vento Pressão Humidade
00:00 -1°C° 0 mm 3 m/s 756 mmHg 92%
01:00 -1°C° 0 mm 3 m/s 757 mmHg 93%
02:00 -2°C° 0 mm 3 m/s 757 mmHg 94%
03:00 -2°C° 0 mm 3 m/s 757 mmHg 95%
04:00 -2°C° 0 mm 2 m/s 757 mmHg 95%
05:00 -2°C° 0 mm 2 m/s 757 mmHg 95%
06:00 -2°C° 0 mm 2 m/s 757 mmHg 93%
07:00 -2°C° 0 mm 2 m/s 758 mmHg 91%
08:00 -2°C° 0 mm 3 m/s 758 mmHg 89%
09:00 -1°C° 0 mm 2 m/s 758 mmHg 81%
10:00 +2°C° 0 mm 2 m/s 758 mmHg 72%
11:00 +3°C° 0 mm 2 m/s 759 mmHg 64%
12:00 +4°C° 0 mm 2 m/s 758 mmHg 59%
13:00 +4°C° 0 mm 2 m/s 758 mmHg 54%
14:00 +6°C° 0 mm 1 m/s 758 mmHg 49%
15:00 +5°C° 0 mm 1 m/s 758 mmHg 54%
16:00 +4°C° 0 mm 1 m/s 758 mmHg 59%
17:00 +4°C° 0 mm 1 m/s 757 mmHg 64%
18:00 +3°C° 0 mm 1 m/s 757 mmHg 67%
19:00 +2°C° 0 mm 1 m/s 757 mmHg 70%
20:00 +1°C° 0 mm 1 m/s 757 mmHg 72%
21:00 +1°C° 0 mm 1 m/s 757 mmHg 73%
22:00 +1°C° 0 mm 1 m/s 756 mmHg 73%
23:00 +1°C° 0 mm 1 m/s 756 mmHg 74%
Mostrar mais

Necessitamos do seu Consentimento

A Meteoprog e os seus Fornecedores de Serviços podem armazenar e aceder a dados pessoais como cookies, identificadores do dispositivo ou outras tecnologias semelhantes existentes no seu dispositivo e processar estes dados para personalizar conteúdos e anúncios, assim como funcionalidades nas redes sociais e análise de tráfego.

  • Armazenar e/ou aceder a informações no seu dispositivo

    Os cookies, identificadores do dispositivo ou outras informações podem ser armazenados ou acedidos no seu dispositivo, para os fins acima indicados.

  • Anúncios e conteúdos personalizados, medição de anúncios e conteúdos, dados sobre o público-alvo e desenvolvimento de produtos

    Os anúncios e os conteúdos podem ser personalizados com base num perfil. Podem ser adicionados dados adicionais para uma maior personalização dos anúncios e dos conteúdos. A eficácia dos anúncios e dos conteúdos pode ser medida. Podem ser obtidas informações sobre o público que visualizou os anúncios e os conteúdos. Estes dados podem ser usados para desenvolver ou melhorar sistemas, softwares ou a experiência do utilizador.

Ao clicar em "Eu concordo”, permitirá o uso de cookies, identificadores do dispositivo e web beacons mencionados ou outras tecnologias semelhantes. As configurações do navegador do seu dispositivo podem ser alteradas.

Para certos fins, podem ser invocados interesses legítimos ao invés de consentimento. Pode ler mais informação sobre este assunto na nossa Política de Privacidade e Cookies.